$Date,$Time,DM0201B,DM0203B,DM0205B,DM0207B,DM0209B
06/05/99,00:00:01,863,166,-18,0,951
06/05/99,00:05:01,772,166,-18,0,953
06/05/99,00:10:01,836,164,-18,0,953
06/05/99,00:15:01,760,171,-18,0,953
06/05/99,00:20:01,742,171,-18,0,953
06/05/99,00:25:01,801,169,-18,0,955
06/05/99,00:30:01,735,169,-18,0,953
06/05/99,00:35:01,688,172,-18,0,955
06/05/99,00:40:01,716,174,-18,0,955
06/05/99,00:45:01,770,177,-18,0,953
06/05/99,00:50:01,681,175,-18,0,955
06/05/99,00:55:01,736,174,-18,0,955
06/05/99,01:00:01,660,178,-18,0,955
06/05/99,01:05:01,725,178,-18,0,955
06/05/99,01:10:01,769,179,-18,0,954
06/05/99,01:15:01,808,163,-18,0,955
06/05/99,01:20:01,700,166,-18,0,952
06/05/99,01:25:01,784,173,-18,0,953
06/05/99,01:30:01,825,173,-18,0,953
06/05/99,01:35:01,738,185,-18,0,953
06/05/99,01:40:01,822,175,-18,0,955
06/05/99,01:45:01,608,175,-18,0,955
06/05/99,01:50:01,572,165,-18,0,955
06/05/99,01:55:01,752,177,-18,0,955
06/05/99,02:00:01,804,169,-18,0,955
06/05/99,02:05:01,710,169,-18,0,955
06/05/99,02:10:01,623,169,-18,0,955
06/05/99,02:15:01,765,169,-18,0,955
06/05/99,02:20:01,610,156,-18,0,955
06/05/99,02:25:01,555,172,-18,0,955
06/05/99,02:30:01,608,161,-18,0,955
06/05/99,02:35:01,539,157,-18,0,955
06/05/99,02:40:01,535,157,-18,0,955
06/05/99,02:45:01,611,170,-18,0,955
06/05/99,02:50:01,581,170,-18,0,955
06/05/99,02:55:01,575,170,-18,0,955
06/05/99,03:00:01,731,160,-18,0,955
06/05/99,03:05:01,603,162,-18,0,955
06/05/99,03:10:01,708,165,-18,0,955
06/05/99,03:15:01,651,165,-18,0,955
06/05/99,03:20:01,728,165,-18,0,955
06/05/99,03:25:01,638,165,-18,0,955
06/05/99,03:30:01,624,165,-18,0,955
06/05/99,03:35:01,632,165,-18,0,955
06/05/99,03:40:01,692,161,-18,0,953
06/05/99,03:45:01,635,161,-18,0,955
06/05/99,03:50:01,646,161,-18,0,955
06/05/99,03:55:01,633,172,-18,0,955
06/05/99,04:00:01,694,163,-18,0,955
06/05/99,04:05:01,667,163,-18,0,955
06/05/99,04:10:01,601,161,-18,0,955
06/05/99,04:15:01,608,174,-18,0,955
06/05/99,04:20:01,666,164,-18,0,955
06/05/99,04:25:01,675,164,-18,0,955
06/05/99,04:30:01,691,164,-18,0,955
06/05/99,04:35:01,590,165,-18,0,955
06/05/99,04:40:01,617,182,-18,0,955
06/05/99,04:45:01,665,166,-18,0,955
06/05/99,04:50:01,691,172,-18,0,955
06/05/99,04:55:01,561,160,-18,0,955
06/05/99,05:00:01,652,164,-18,0,955
06/05/99,05:05:01,714,166,-18,0,955
06/05/99,05:10:01,677,176,-18,0,955
06/05/99,05:15:01,654,165,-18,0,955
06/05/99,05:20:01,701,165,-18,0,955
06/05/99,05:25:01,826,176,-18,0,955
06/05/99,05:30:01,811,171,-16,0,955
06/05/99,05:35:01,670,171,-16,0,955
06/05/99,05:40:01,668,167,-16,0,955
06/05/99,05:45:01,706,178,-16,0,955
06/05/99,05:50:01,734,171,-16,0,955
06/05/99,05:55:01,594,175,-16,0,957
06/05/99,06:00:01,550,160,-16,0,955
06/05/99,06:05:01,612,156,-16,0,955
06/05/99,06:10:01,615,170,-16,0,957
06/05/99,06:15:01,650,158,-16,0,957
06/05/99,06:20:01,613,169,-16,0,957
06/05/99,06:25:01,642,165,-16,0,957
06/05/99,06:30:01,613,165,-16,0,957
06/05/99,06:35:01,606,158,-16,0,957
06/05/99,06:40:01,591,172,-16,0,957
06/05/99,06:45:01,671,172,-16,0,956
06/05/99,06:50:01,612,175,-16,0,958
06/05/99,06:55:01,617,175,-16,0,958
06/05/99,07:00:01,585,172,-16,0,958
06/05/99,07:05:01,507,172,-16,0,958
06/05/99,07:10:01,578,169,-16,0,958
06/05/99,07:15:01,605,172,-16,0,958
06/05/99,07:20:01,569,171,-16,0,958
06/05/99,07:25:01,580,172,-16,0,958
06/05/99,07:30:01,560,172,-16,0,958
06/05/99,07:35:01,682,172,-16,0,958
06/05/99,07:40:01,699,172,-16,0,958
06/05/99,07:45:01,601,172,-16,0,958
06/05/99,07:50:01,603,173,-16,0,958
06/05/99,07:55:01,522,185,-16,0,958
06/05/99,08:00:01,512,175,-16,0,958
06/05/99,08:05:01,732,175,-16,0,958
06/05/99,08:10:01,629,168,-16,0,958
06/05/99,08:15:01,597,180,-16,0,958
06/05/99,08:20:01,747,178,-16,0,960
06/05/99,08:25:01,729,168,-16,0,958
06/05/99,08:30:01,602,179,-16,0,958
06/05/99,08:35:01,557,183,-16,0,958
06/05/99,08:40:01,668,171,-16,0,958
06/05/99,08:45:01,580,171,-16,0,958
06/05/99,08:50:01,617,171,-16,0,960
06/05/99,08:55:01,639,171,-16,0,958
06/05/99,09:00:01,682,171,-16,0,958
06/05/99,09:05:01,639,171,-16,0,958
06/05/99,09:10:01,599,171,-16,0,958
06/05/99,09:15:01,667,171,-16,0,958
06/05/99,09:20:01,697,171,-16,0,958
06/05/99,09:25:01,661,161,-16,0,958
06/05/99,09:30:01,629,172,-16,0,958
06/05/99,09:35:01,723,172,-16,0,958
06/05/99,09:40:01,719,171,-16,0,958
06/05/99,09:45:01,683,171,-16,0,958
06/05/99,09:50:01,705,171,-16,0,958
06/05/99,09:55:01,732,171,-16,0,958
06/05/99,10:00:01,726,171,-16,0,958
06/05/99,10:05:01,750,171,-16,0,958
06/05/99,10:10:01,666,171,-16,0,958
06/05/99,10:15:01,733,171,-16,0,958
06/05/99,10:20:01,723,171,-16,0,958
06/05/99,10:25:01,741,161,-16,0,958
06/05/99,10:30:01,727,171,-16,0,958
06/05/99,10:35:01,722,171,-16,0,958
06/05/99,10:40:01,669,170,-16,0,958
06/05/99,10:45:01,654,171,-16,0,958
06/05/99,10:50:01,612,171,-16,0,958
06/05/99,10:55:01,763,171,-16,0,958
06/05/99,11:00:01,696,173,-16,0,958
06/05/99,11:05:01,741,170,-16,0,958
06/05/99,11:10:01,750,170,-16,0,958
06/05/99,11:15:01,732,170,-16,0,958
06/05/99,11:20:01,754,170,-16,0,958
06/05/99,11:25:01,646,160,-16,0,958
06/05/99,11:30:01,725,167,-16,0,958
06/05/99,11:35:01,712,167,-16,0,958
06/05/99,11:40:01,801,167,-16,0,958
06/05/99,11:45:01,691,167,-16,0,958
06/05/99,11:50:01,795,170,-16,0,958
06/05/99,11:55:01,685,160,-16,0,958
06/05/99,12:00:01,737,173,-16,0,958
06/05/99,12:05:01,745,174,-16,0,958
06/05/99,12:10:01,741,170,-16,0,958
06/05/99,12:15:01,767,171,-16,0,958
06/05/99,12:20:01,755,160,-16,0,958
06/05/99,12:25:01,675,163,-16,0,958
06/05/99,12:30:01,700,173,-16,0,958
06/05/99,12:35:01,684,162,-16,0,958
06/05/99,12:40:01,724,162,-16,0,958
06/05/99,12:45:01,671,176,-16,0,958
06/05/99,12:50:01,759,165,-16,0,958
06/05/99,12:55:01,790,165,-16,0,958
06/05/99,13:00:01,714,165,-16,0,958
06/05/99,13:05:01,711,165,-16,0,958
06/05/99,13:10:01,670,165,-16,0,958
06/05/99,13:15:01,763,165,-16,0,960
06/05/99,13:20:01,631,165,-16,0,960
06/05/99,13:25:01,728,169,-16,0,960
06/05/99,13:30:01,819,169,-16,0,958
06/05/99,13:35:01,692,159,-16,0,958
06/05/99,13:40:01,791,169,-16,0,960
06/05/99,13:45:01,765,159,-16,0,960
06/05/99,13:50:01,711,163,-16,0,960
06/05/99,13:55:01,692,163,-16,0,960
06/05/99,14:00:01,655,160,-16,0,960
06/05/99,14:05:01,803,171,-16,0,960
06/05/99,14:10:01,733,163,-16,0,960
06/05/99,14:15:01,712,163,-16,0,960
06/05/99,14:20:01,685,163,-16,0,960
06/05/99,14:25:01,742,164,-16,0,960
06/05/99,14:30:01,782,164,-16,0,960
06/05/99,14:35:01,709,164,-16,0,960
06/05/99,14:40:01,722,164,-16,0,960
06/05/99,14:45:01,658,164,-16,0,960
06/05/99,14:50:01,699,164,-16,0,960
06/05/99,14:55:01,721,164,-16,0,960
06/05/99,15:00:01,718,164,-16,0,960
06/05/99,15:05:01,645,164,-16,0,960
06/05/99,15:10:01,656,164,-16,0,960
06/05/99,15:15:01,657,164,-16,0,960
06/05/99,15:20:01,723,164,-16,0,960
06/05/99,15:25:01,664,164,-16,0,962
06/05/99,15:30:01,688,164,-16,0,962
06/05/99,15:35:01,745,164,-16,0,962
06/05/99,15:40:01,682,164,-16,0,962
06/05/99,15:45:01,734,164,-16,0,962
06/05/99,15:50:01,681,164,-16,0,962
06/05/99,15:55:01,752,164,-16,0,962
06/05/99,16:00:01,721,164,-16,0,962
06/05/99,16:05:01,700,164,-16,0,962
06/05/99,16:10:01,689,164,-16,0,962
06/05/99,16:15:01,766,164,-16,0,962
06/05/99,16:20:01,734,164,-16,0,962
06/05/99,16:25:01,694,164,-16,0,962
06/05/99,16:30:01,775,164,-16,0,962
06/05/99,16:35:01,671,164,-16,0,962
06/05/99,16:40:01,750,164,-16,0,962
06/05/99,16:45:01,729,164,-16,0,962
06/05/99,16:50:01,770,164,-16,0,962
06/05/99,16:55:01,649,164,-16,0,962
06/05/99,17:00:01,741,164,-16,0,962
06/05/99,17:05:01,680,163,-16,0,962
06/05/99,17:10:01,669,162,-16,0,962
06/05/99,17:15:01,716,162,-16,0,964
06/05/99,17:20:01,705,164,-16,0,962
06/05/99,17:25:01,634,164,-16,0,962
06/05/99,17:30:01,627,164,-16,0,962
06/05/99,17:35:01,718,164,-16,0,964
06/05/99,17:40:01,705,164,-16,0,962
06/05/99,17:45:01,701,164,-16,0,964
06/05/99,17:50:01,768,164,-16,0,964
06/05/99,17:55:01,670,164,-16,0,964
06/05/99,18:00:01,706,166,-16,0,964
06/05/99,18:05:01,631,166,-16,0,964
06/05/99,18:10:01,638,166,-16,0,964
06/05/99,18:15:01,682,166,-16,0,964
06/05/99,18:20:01,704,166,-16,0,964
06/05/99,18:25:01,681,166,-16,0,964
06/05/99,18:30:01,672,168,-16,0,964
06/05/99,18:35:01,704,168,-16,0,964
06/05/99,18:40:01,701,166,-16,0,964
06/05/99,18:45:01,746,167,-16,0,964
06/05/99,18:50:01,784,164,-16,0,964
06/05/99,18:55:01,737,164,-16,0,964
06/05/99,19:00:01,645,164,-16,0,964
06/05/99,19:05:01,689,164,-16,0,964
06/05/99,19:10:01,597,164,-16,0,964
06/05/99,19:15:01,589,164,-16,0,964
06/05/99,19:20:01,697,164,-16,0,964
06/05/99,19:25:01,732,164,-16,0,964
06/05/99,19:30:01,694,164,-16,0,964
06/05/99,19:35:01,638,168,-16,0,964
06/05/99,19:40:01,658,168,-16,0,964
06/05/99,19:45:01,633,170,-16,0,964
06/05/99,19:50:01,638,157,-16,0,964
06/05/99,19:55:01,681,157,-16,0,964
06/05/99,20:00:01,692,158,-16,0,966
06/05/99,20:05:01,698,158,-16,0,966
06/05/99,20:10:01,627,158,-16,0,966
06/05/99,20:15:01,647,167,-16,0,966
06/05/99,20:20:01,589,167,-16,0,966
06/05/99,20:25:01,601,166,-16,0,966
06/05/99,20:30:01,613,170,-16,0,966
06/05/99,20:35:01,663,170,-16,0,966
06/05/99,20:40:01,699,160,-16,0,966
06/05/99,20:45:01,705,160,-16,0,966
06/05/99,20:50:01,722,160,-16,0,964
06/05/99,20:55:01,670,169,-16,0,966
06/05/99,21:00:01,753,158,-16,0,966
06/05/99,21:05:01,699,158,-16,0,966
06/05/99,21:10:01,662,158,-16,0,966
06/05/99,21:15:01,792,158,-16,0,966
06/05/99,21:20:01,619,158,-16,0,966
06/05/99,21:25:01,728,158,-16,0,966
06/05/99,21:30:01,705,168,-16,0,966
06/05/99,21:35:01,681,164,-16,0,966
06/05/99,21:40:01,770,164,-16,0,966
06/05/99,21:45:01,716,164,-16,0,966
06/05/99,21:50:01,677,164,-16,0,966
06/05/99,21:55:01,674,164,-16,0,966
06/05/99,22:00:01,615,164,-16,0,966
06/05/99,22:05:01,556,164,-16,0,966
06/05/99,22:10:01,728,164,-16,0,966
06/05/99,22:15:01,700,164,-16,0,968
06/05/99,22:20:01,621,164,-16,0,968
06/05/99,22:25:01,720,164,-16,0,968
06/05/99,22:30:01,585,164,-16,0,968
06/05/99,22:35:01,674,164,-16,0,968
06/05/99,22:40:01,575,166,-16,0,968
06/05/99,22:45:01,597,166,-16,0,968
06/05/99,22:50:01,595,166,-16,0,968
06/05/99,22:55:01,709,166,-16,0,968
06/05/99,23:00:01,576,167,-16,0,968
06/05/99,23:05:01,585,157,-16,0,968
06/05/99,23:10:01,614,170,-16,0,968
06/05/99,23:15:01,657,172,-16,0,968
06/05/99,23:20:01,656,162,-16,0,968
06/05/99,23:25:01,653,162,-16,0,968
06/05/99,23:30:01,668,164,-16,0,968
06/05/99,23:35:01,586,163,-16,0,968
06/05/99,23:40:01,644,163,-16,0,968
06/05/99,23:45:01,643,163,-16,0,968
06/05/99,23:50:01,622,163,-16,0,968
06/05/99,23:55:01,601,163,-16,0,968
06/06/99,00:00:01,595,163,-16,0,968
